ASA9739 KLAS-KSFO

Flight info

Callsign ASA9739
Flight time 1h 4m
Altitude 38000
Route JOHKR5 KENNO RUSME DYAMD5
Aircraft B739/M-SDE2E3FGHIRWXY/LB1

Departure

Time 2026-05-04 14:12
Airport Harry Reid International Airport (KLAS)

Arrival

Time 2026-05-04 15:17
Airport San Francisco International Airport (KSFO)
Time Latitude Longitude Altitude Speed Heading
2026-05-04 13:58 36.08520 -115.14056 2091 ft 0 kts 360°
2026-05-04 14:01 36.08510 -115.14056 2091 ft 4 kts 360°
2026-05-04 14:02 36.08487 -115.14056 2091 ft 4 kts 357°
2026-05-04 14:02 36.08468 -115.14047 2091 ft 4 kts 287°
2026-05-04 14:02 36.08465 -115.14017 2091 ft 4 kts 270°
2026-05-04 14:02 36.08465 -115.13990 2091 ft 0 kts 270°
2026-05-04 14:05 36.08465 -115.13998 2091 ft 2 kts 269°
2026-05-04 14:06 36.08459 -115.14027 2091 ft 5 kts 245°
2026-05-04 14:06 36.08442 -115.14055 2091 ft 7 kts 228°
2026-05-04 14:06 36.08404 -115.14103 2091 ft 9 kts 225°
2026-05-04 14:06 36.08354 -115.14165 2091 ft 11 kts 225°
2026-05-04 14:07 36.08293 -115.14236 2093 ft 13 kts 208°
2026-05-04 14:07 36.08203 -115.14242 2094 ft 13 kts 181°
2026-05-04 14:07 36.08106 -115.14242 2095 ft 15 kts 180°
2026-05-04 14:07 36.07999 -115.14242 2094 ft 16 kts 180°
2026-05-04 14:08 36.07884 -115.14242 2094 ft 17 kts 181°
2026-05-04 14:08 36.07787 -115.14241 2094 ft 12 kts 171°
2026-05-04 14:08 36.07754 -115.14154 2093 ft 14 kts 89°
2026-05-04 14:08 36.07754 -115.14025 2092 ft 16 kts 89°
2026-05-04 14:09 36.07749 -115.13708 2091 ft 20 kts 93°
2026-05-04 14:09 36.07754 -115.13537 2090 ft 20 kts 88°
2026-05-04 14:10 36.07756 -115.13178 2084 ft 23 kts 92°
2026-05-04 14:10 36.07744 -115.12962 2071 ft 27 kts 95°
2026-05-04 14:10 36.07756 -115.12720 2065 ft 26 kts 89°
2026-05-04 14:10 36.07756 -115.12488 2057 ft 29 kts 90°
2026-05-04 14:11 36.07756 -115.12295 2052 ft 17 kts 91°
2026-05-04 14:11 36.07640 -115.12171 2053 ft 15 kts 261°
2026-05-04 14:11 36.07640 -115.12360 2052 ft 46 kts 270°
2026-05-04 14:12 36.07641 -115.13093 2081 ft 121 kts 269°
2026-05-04 14:12 36.07658 -115.14370 2141 ft 170 kts 268°
2026-05-04 14:12 36.07687 -115.17439 3611 ft 164 kts 266°
2026-05-04 14:13 36.07686 -115.18835 4483 ft 164 kts 265°
2026-05-04 14:13 36.07658 -115.20376 4804 ft 195 kts 261°
2026-05-04 14:13 36.07440 -115.22140 5034 ft 222 kts 256°
2026-05-04 14:13 36.07109 -115.24106 5343 ft 242 kts 247°
2026-05-04 14:14 36.06176 -115.25847 5873 ft 252 kts 221°
2026-05-04 14:14 36.02941 -115.27785 7452 ft 264 kts 198°
2026-05-04 14:14 36.01210 -115.28547 7899 ft 262 kts 198°
2026-05-04 14:15 35.97826 -115.30236 8141 ft 263 kts 206°
2026-05-04 14:15 35.94539 -115.32441 9894 ft 269 kts 207°
2026-05-04 14:16 35.91186 -115.34651 10988 ft 275 kts 207°
2026-05-04 14:16 35.89665 -115.36081 11022 ft 279 kts 229°
2026-05-04 14:17 35.88479 -115.40627 11063 ft 291 kts 266°
2026-05-04 14:17 35.88530 -115.43122 11046 ft 291 kts 269°
2026-05-04 14:17 35.88695 -115.48120 11036 ft 292 kts 268°
2026-05-04 14:18 35.88771 -115.50623 11046 ft 291 kts 268°
2026-05-04 14:18 35.88869 -115.55625 11035 ft 292 kts 268°
2026-05-04 14:19 35.88955 -115.60900 11325 ft 334 kts 268°
2026-05-04 14:19 35.89006 -115.63871 11642 ft 358 kts 268°
2026-05-04 14:19 35.89069 -115.66978 12392 ft 365 kts 269°
2026-05-04 14:19 35.89129 -115.70109 13368 ft 366 kts 269°
2026-05-04 14:20 35.89187 -115.73259 14311 ft 368 kts 268°
2026-05-04 14:20 35.89244 -115.76416 15296 ft 367 kts 268°
2026-05-04 14:20 35.89300 -115.79558 16308 ft 366 kts 268°
2026-05-04 14:21 35.89409 -115.85849 18150 ft 369 kts 267°
2026-05-04 14:21 35.89461 -115.88974 18875 ft 371 kts 267°
2026-05-04 14:21 35.89787 -115.92161 19536 ft 382 kts 281°
2026-05-04 14:21 35.90874 -115.95201 20290 ft 395 kts 295°
2026-05-04 14:22 35.92633 -115.97883 21005 ft 408 kts 307°
2026-05-04 14:22 35.94641 -116.00378 21706 ft 413 kts 308°
2026-05-04 14:22 35.96713 -116.02874 22280 ft 419 kts 308°
2026-05-04 14:22 35.98809 -116.05390 22890 ft 422 kts 308°
2026-05-04 14:23 36.03054 -116.10463 24115 ft 427 kts 308°
2026-05-04 14:23 36.05171 -116.13049 24663 ft 429 kts 306°
2026-05-04 14:23 36.07272 -116.15674 25214 ft 431 kts 305°
2026-05-04 14:24 36.09384 -116.18323 25730 ft 434 kts 305°
2026-05-04 14:24 36.11510 -116.20984 26232 ft 437 kts 304°
2026-05-04 14:24 36.13660 -116.23667 26745 ft 440 kts 304°
2026-05-04 14:24 36.15821 -116.26356 27233 ft 443 kts 304°
2026-05-04 14:25 36.18004 -116.29072 27638 ft 447 kts 304°
2026-05-04 14:25 36.22424 -116.34569 28543 ft 452 kts 303°
2026-05-04 14:25 36.24650 -116.37340 28965 ft 455 kts 303°
2026-05-04 14:26 36.26885 -116.40126 29405 ft 456 kts 303°
2026-05-04 14:26 36.29129 -116.42910 29957 ft 456 kts 304°
2026-05-04 14:26 36.31399 -116.45630 30586 ft 451 kts 304°
2026-05-04 14:26 36.33632 -116.48257 31214 ft 447 kts 304°
2026-05-04 14:27 36.35884 -116.50900 31789 ft 445 kts 304°
2026-05-04 14:27 36.38118 -116.53544 32278 ft 443 kts 303°
2026-05-04 14:27 36.40344 -116.56194 32744 ft 442 kts 303°
2026-05-04 14:27 36.42555 -116.58839 33185 ft 442 kts 303°
2026-05-04 14:28 36.44776 -116.61467 33626 ft 442 kts 304°
2026-05-04 14:28 36.47035 -116.64074 34067 ft 443 kts 304°
2026-05-04 14:28 36.49293 -116.66638 34599 ft 437 kts 304°
2026-05-04 14:28 36.51541 -116.69174 35118 ft 435 kts 304°
2026-05-04 14:29 36.55993 -116.74222 36042 ft 431 kts 304°
2026-05-04 14:29 36.60383 -116.79224 37038 ft 424 kts 303°
2026-05-04 14:30 36.62553 -116.81698 37598 ft 420 kts 303°
2026-05-04 14:30 36.64711 -116.84169 37789 ft 425 kts 305°
2026-05-04 14:30 36.69124 -116.89235 37797 ft 436 kts 306°
2026-05-04 14:31 36.71356 -116.91784 37800 ft 435 kts 306°
2026-05-04 14:31 36.76249 -116.96313 37804 ft 457 kts 321°
2026-05-04 14:32 36.81935 -116.99890 37836 ft 457 kts 323°
2026-05-04 14:32 36.87615 -117.03481 37802 ft 457 kts 323°
2026-05-04 14:33 36.93272 -117.07130 37801 ft 458 kts 323°
2026-05-04 14:33 36.98929 -117.10813 37799 ft 459 kts 322°
2026-05-04 14:34 37.04609 -117.14519 37807 ft 461 kts 324°
2026-05-04 14:34 37.10313 -117.18244 37809 ft 464 kts 324°
2026-05-04 14:35 37.16052 -117.21996 37808 ft 466 kts 324°
2026-05-04 14:35 37.21807 -117.25765 37817 ft 468 kts 324°
2026-05-04 14:36 37.27547 -117.29530 37815 ft 469 kts 324°
2026-05-04 14:36 37.32916 -117.33960 37831 ft 455 kts 311°
2026-05-04 14:37 37.37632 -117.39257 37808 ft 454 kts 310°
2026-05-04 14:37 37.42402 -117.44489 37821 ft 455 kts 311°
2026-05-04 14:38 37.47172 -117.49710 37810 ft 449 kts 304°
2026-05-04 14:38 37.48843 -117.52901 37837 ft 430 kts 288°
2026-05-04 14:38 37.49818 -117.56399 37808 ft 419 kts 275°
2026-05-04 14:39 37.50517 -117.63620 37811 ft 415 kts 270°
2026-05-04 14:39 37.51033 -117.70816 37822 ft 416 kts 270°
2026-05-04 14:40 37.51860 -117.81705 37811 ft 417 kts 270°
2026-05-04 14:40 37.52439 -117.88983 37820 ft 417 kts 270°
2026-05-04 14:41 37.53020 -117.96246 37810 ft 417 kts 270°
2026-05-04 14:42 37.54167 -118.10713 37823 ft 416 kts 270°
2026-05-04 14:42 37.54734 -118.17970 37866 ft 416 kts 270°
2026-05-04 14:43 37.55295 -118.25236 37886 ft 416 kts 270°
2026-05-04 14:43 37.55853 -118.32521 37901 ft 418 kts 270°
2026-05-04 14:44 37.56409 -118.39822 37890 ft 419 kts 269°
2026-05-04 14:44 37.56963 -118.47126 37877 ft 419 kts 269°
2026-05-04 14:45 37.57508 -118.54388 37900 ft 418 kts 269°
2026-05-04 14:45 37.58051 -118.61684 37950 ft 418 kts 269°
2026-05-04 14:46 37.58589 -118.68987 37996 ft 419 kts 269°
2026-05-04 14:46 37.59124 -118.76313 38003 ft 419 kts 269°
2026-05-04 14:47 37.59654 -118.83633 38001 ft 418 kts 269°
2026-05-04 14:47 37.60179 -118.90931 37992 ft 418 kts 269°
2026-05-04 14:48 37.60699 -118.98231 38004 ft 418 kts 269°
2026-05-04 14:48 37.61215 -119.05553 37984 ft 420 kts 269°
2026-05-04 14:49 37.61729 -119.12914 37921 ft 422 kts 269°
2026-05-04 14:49 37.62240 -119.20284 37923 ft 423 kts 269°
2026-05-04 14:50 37.62746 -119.27645 37970 ft 423 kts 269°
2026-05-04 14:50 37.63253 -119.35106 37961 ft 425 kts 269°
2026-05-04 14:51 37.63755 -119.42545 37961 ft 426 kts 269°
2026-05-04 14:51 37.64249 -119.49937 37977 ft 425 kts 269°
2026-05-04 14:52 37.64741 -119.57363 37985 ft 425 kts 269°
2026-05-04 14:52 37.65228 -119.64798 38004 ft 425 kts 269°
2026-05-04 14:53 37.65711 -119.72255 38012 ft 427 kts 269°
2026-05-04 14:53 37.66191 -119.79724 38012 ft 427 kts 269°
2026-05-04 14:54 37.66667 -119.87209 38029 ft 428 kts 269°
2026-05-04 14:54 37.67140 -119.94714 38010 ft 429 kts 269°
2026-05-04 14:55 37.67608 -120.02217 38019 ft 429 kts 269°
2026-05-04 14:55 37.67993 -120.08456 38023 ft 429 kts 269°
2026-05-04 14:56 37.68452 -120.15965 38050 ft 430 kts 270°
2026-05-04 14:56 37.68909 -120.23520 38039 ft 433 kts 270°
2026-05-04 14:57 37.69137 -120.27338 37501 ft 441 kts 270°
2026-05-04 14:57 37.69368 -120.31195 36830 ft 438 kts 270°
2026-05-04 14:57 37.69597 -120.35024 35899 ft 437 kts 270°
2026-05-04 14:57 37.69823 -120.38846 34916 ft 437 kts 270°
2026-05-04 14:58 37.69821 -120.42667 33854 ft 435 kts 261°
2026-05-04 14:58 37.69395 -120.46444 32661 ft 435 kts 258°
2026-05-04 14:58 37.68892 -120.50221 31509 ft 437 kts 258°
2026-05-04 14:58 37.68387 -120.54012 30392 ft 439 kts 259°
2026-05-04 14:59 37.67902 -120.57821 29139 ft 440 kts 259°
2026-05-04 14:59 37.67443 -120.61599 27877 ft 442 kts 260°
2026-05-04 14:59 37.66541 -120.69296 26340 ft 429 kts 261°
2026-05-04 15:00 37.66108 -120.72973 26110 ft 420 kts 261°
2026-05-04 15:00 37.65680 -120.76575 25677 ft 412 kts 261°
2026-05-04 15:00 37.65258 -120.80088 25106 ft 409 kts 261°
2026-05-04 15:01 37.64399 -120.87205 23972 ft 415 kts 262°
2026-05-04 15:01 37.63962 -120.90821 23313 ft 417 kts 262°
2026-05-04 15:01 37.63526 -120.94427 22670 ft 414 kts 262°
2026-05-04 15:01 37.63084 -120.97995 22076 ft 409 kts 261°
2026-05-04 15:02 37.62620 -121.01515 21487 ft 404 kts 261°
2026-05-04 15:02 37.62151 -121.04986 20916 ft 398 kts 261°
2026-05-04 15:02 37.61687 -121.08409 20350 ft 393 kts 261°
2026-05-04 15:02 37.61232 -121.11780 19798 ft 387 kts 261°
2026-05-04 15:03 37.60788 -121.15104 19249 ft 382 kts 261°
2026-05-04 15:03 37.60348 -121.18388 18725 ft 378 kts 261°
2026-05-04 15:03 37.59911 -121.21630 18181 ft 374 kts 261°
2026-05-04 15:03 37.59474 -121.24850 17600 ft 370 kts 260°
2026-05-04 15:04 37.59057 -121.28035 17051 ft 366 kts 261°
2026-05-04 15:04 37.58695 -121.31146 16511 ft 362 kts 262°
2026-05-04 15:04 37.58341 -121.34320 15974 ft 359 kts 262°
2026-05-04 15:04 37.58001 -121.37388 15466 ft 357 kts 262°
2026-05-04 15:05 37.57647 -121.40473 14956 ft 355 kts 261°
2026-05-04 15:05 37.57290 -121.43537 14463 ft 352 kts 261°
2026-05-04 15:05 37.56934 -121.46592 13972 ft 351 kts 261°
2026-05-04 15:05 37.56581 -121.49632 13436 ft 350 kts 261°
2026-05-04 15:06 37.56233 -121.52658 12895 ft 347 kts 261°
2026-05-04 15:06 37.55885 -121.55658 12387 ft 344 kts 261°
2026-05-04 15:06 37.55537 -121.58612 11897 ft 338 kts 262°
2026-05-04 15:07 37.54767 -121.64354 10944 ft 320 kts 254°
2026-05-04 15:07 37.54137 -121.66940 10519 ft 306 kts 251°
2026-05-04 15:07 37.53481 -121.69433 10100 ft 295 kts 251°
2026-05-04 15:07 37.52859 -121.71875 9665 ft 290 kts 252°
2026-05-04 15:08 37.52273 -121.74263 9224 ft 281 kts 252°
2026-05-04 15:08 37.51713 -121.76581 8813 ft 273 kts 252°
2026-05-04 15:08 37.51168 -121.78853 8457 ft 269 kts 251°
2026-05-04 15:08 37.50625 -121.81114 8084 ft 269 kts 251°
2026-05-04 15:09 37.50083 -121.83366 7703 ft 269 kts 251°
2026-05-04 15:09 37.49542 -121.85623 7325 ft 269 kts 250°
2026-05-04 15:09 37.49083 -121.87910 6942 ft 271 kts 262°
2026-05-04 15:10 37.49334 -121.92601 6388 ft 265 kts 271°
2026-05-04 15:10 37.49489 -121.94900 6088 ft 262 kts 271°
2026-05-04 15:10 37.49769 -121.99416 5495 ft 255 kts 271°
2026-05-04 15:11 37.49897 -122.01630 5209 ft 252 kts 271°
2026-05-04 15:11 37.50023 -122.03819 4926 ft 248 kts 271°
2026-05-04 15:11 37.50146 -122.05969 4639 ft 245 kts 271°
2026-05-04 15:11 37.50265 -122.08087 4381 ft 239 kts 272°
2026-05-04 15:12 37.50506 -122.10090 4133 ft 234 kts 289°
2026-05-04 15:12 37.51258 -122.11900 3890 ft 226 kts 297°
2026-05-04 15:12 37.51981 -122.13600 3629 ft 220 kts 296°
2026-05-04 15:12 37.52685 -122.15281 3348 ft 215 kts 298°
2026-05-04 15:13 37.53419 -122.16919 3069 ft 213 kts 298°
2026-05-04 15:13 37.54131 -122.18540 2828 ft 210 kts 297°
2026-05-04 15:13 37.54823 -122.20158 2603 ft 211 kts 297°
2026-05-04 15:13 37.55514 -122.21791 2396 ft 208 kts 297°
2026-05-04 15:14 37.56172 -122.23358 2133 ft 196 kts 297°
2026-05-04 15:14 37.56788 -122.24825 1905 ft 183 kts 296°
2026-05-04 15:14 37.57383 -122.26230 1701 ft 183 kts 297°
2026-05-04 15:14 37.57957 -122.27569 1509 ft 162 kts 296°
2026-05-04 15:15 37.58450 -122.28748 1303 ft 145 kts 296°
2026-05-04 15:15 37.58898 -122.29823 1124 ft 135 kts 296°
2026-05-04 15:15 37.59332 -122.30865 927 ft 133 kts 296°
2026-05-04 15:16 37.60199 -122.32945 572 ft 136 kts 297°
2026-05-04 15:16 37.60642 -122.34013 389 ft 139 kts 295°
2026-05-04 15:16 37.61533 -122.36123 45 ft 131 kts 294°
2026-05-04 15:17 37.61916 -122.37056 16 ft 96 kts 297°
2026-05-04 15:17 37.62198 -122.37790 19 ft 28 kts 278°
2026-05-04 15:17 37.62219 -122.38018 24 ft 26 kts 278°
2026-05-04 15:18 37.62210 -122.38243 23 ft 27 kts 231°
2026-05-04 15:18 37.62077 -122.38298 23 ft 17 kts 128°
2026-05-04 15:18 37.62018 -122.38149 23 ft 22 kts 117°
2026-05-04 15:19 37.61797 -122.37872 17 ft 23 kts 168°
2026-05-04 15:19 37.61665 -122.37963 15 ft 22 kts 210°
2026-05-04 15:19 37.61399 -122.38139 15 ft 21 kts 207°
2026-05-04 15:20 37.61286 -122.38219 16 ft 15 kts 214°
2026-05-04 15:20 37.61228 -122.38293 17 ft 5 kts 266°
2026-05-04 15:20 37.61243 -122.38342 16 ft 7 kts 298°
2026-05-04 15:20 37.61253 -122.38366 17 ft 3 kts 297°
2026-05-04 15:21 37.61262 -122.38385 17 ft 0 kts 298°